Wind_Speed
29 29 29 29 30 30 31 32 32 33 33 34 35 36 36 37 38 39 39 40 41 43 44 46 47 47 48 49 49 49 49 49 49 49 50 50 52 53 54 54 54 54 55
30 30 30 30 30 31 32 32 33 33 33 34 35 36 37 37 38 39 40 40 41 42 43 45 45 46 46 47 48 49 49 49 51 52 53 52 53 54 54 55 55 55 55
31 31 31 31 31 31 32 33 33 33 34 35 35 36 37 38 39 39 39 40 41 42 42 43 43 44 46 46 47 49 50 50 51 52 53 54 54 54 54 54 55 55 56
32 31 31 31 31 32 32 33 34 34 35 35 36 36 37 38 38 39 40 41 41 41 42 43 43 44 45 46 47 48 50 51 51 52 53 54 54 55 54 54 55 56 56
32 32 32 32 32 33 33 34 35 35 36 36 37 37 38 38 39 40 40 40 41 41 42 43 43 44 45 45 46 47 49 51 52 52 53 54 56 56 56 55 55 55 56
32 32 32 33 33 33 34 34 35 35 36 37 37 38 38 39 40 40 40 40 41 41 42 43 44 45 46 46 46 47 49 50 51 52 53 54 56 57 57 56 55 55 55
33 33 33 33 33 33 34 34 35 35 36 37 38 38 39 40 40 40 40 41 41 42 43 43 45 45 45 46 47 48 49 50 52 53 54 55 56 56 56 56 56 56 56
33 33 33 33 33 33 34 34 35 35 36 37 37 38 39 40 40 41 41 41 42 43 44 45 45 45 46 47 47 48 50 51 53 54 54 54 53 54 55 56 56 56 55
33 33 33 33 33 33 34 34 35 36 36 36 37 38 39 40 41 42 42 43 43 43 44 45 46 47 47 48 48 49 50 51 52 53 53 53 52 53 53 54 55 55 53
33 32 32 32 33 33 34 35 36 35 36 36 37 39 40 41 42 42 42 43 44 44 45 45 46 47 47 47 48 49 50 51 52 52 52 52 52 52 53 53 53 53 52
32 32 32 33 33 33 34 35 35 36 36 37 38 39 41 42 42 43 44 44 45 45 46 46 46 46 46 47 48 49 51 52 52 51 51 51 52 52 52 51 51 50 49
32 32 32 32 33 33 33 34 35 36 37 38 39 39 40 42 42 43 43 43 44 44 45 45 45 45 46 47 48 49 50 50 50 50 50 50 51 50 49 49 49 48 46
31 31 32 32 33 32 33 34 35 36 37 38 39 40 41 41 41 42 42 42 43 43 44 44 45 45 46 47 48 49 48 48 49 50 50 50 49 48 47 47 46 46 44
31 32 32 32 32 32 33 34 35 37 38 39 39 40 40 41 40 40 41 42 42 42 43 44 44 45 46 46 47 47 47 47 48 49 49 48 46 45 44 44 43 43 42
32 32 32 31 32 33 34 35 36 37 38 39 40 40 40 40 40 40 40 41 41 42 42 43 44 45 45 46 46 46 46 46 47 46 46 44 43 42 41 41 41 40 39
31 32 32 32 33 34 34 35 36 37 38 39 39 39 39 39 39 39 40 40 41 41 42 42 43 43 44 44 44 45 44 44 43 42 41 40 39 39 39 39 38 37 37
32 33 33 33 34 34 34 35 36 37 37 37 37 38 38 39 39 39 39 40 40 40 41 41 41 41 41 41 42 42 42 41 40 39 37 37 37 38 38 37 35 34 34
33 33 34 34 34 35 35 35 36 36 36 36 36 37 38 38 38 38 38 39 39 39 39 39 39 39 38 38 39 38 38 38 38 37 36 36 36 36 36 35 33 32 33
33 34 34 34 35 36 36 36 35 35 35 36 36 37 37 37 37 37 37 37 37 37 37 37 36 36 35 36 37 37 37 36 36 35 35 35 34 33 33 31 30 30 30
33 33 33 34 35 35 35 35 34 34 34 34 35 35 36 36 36 36 36 36 36 35 35 34 34 34 34 35 35 35 35 34 33 32 32 31 31 30 29 28 28 28 28
33 32 32 33 34 35 35 34 34 34 34 35 35 35 35 35 35 35 34 34 34 34 33 33 33 33 32 33 32 33 33 32 31 30 29 29 28 27 26 26 26 25 25
33 33 33 33 34 34 34 34 34 34 34 34 34 34 34 35 34 34 34 34 34 32 32 32 32 31 31 31 31 32 32 31 30 28 27 27 26 25 25 24 24 23 23
33 33 33 34 34 34 33 34 34 34 34 34 33 33 33 33 32 33 33 33 32 31 30 30 28 29 29 30 31 31 30 30 29 28 26 25 24 23 23 22 21 21 21
33 33 33 34 33 33 33 33 34 34 33 33 33 33 32 31 31 31 30 30 29 28 28 27 28 28 28 29 29 30 29 29 28 26 25 24 23 22 21 20 18 18 19
32 32 33 33 32 32 32 32 32 33 33 33 33 33 32 31 30 29 28 28 27 27 27 27 27 27 26 27 28 28 28 28 26 25 23 22 21 21 19 18 17 16 15
30 30 31 31 31 31 30 30 30 31 31 31 31 30 29 29 28 27 26 26 26 26 26 26 26 26 26 26 27 27 26 25 23 22 21 20 20 19 18 17 16 14 13
Wind_Direction
254 256 258 260 263 265 266 267 268 269 271 271 272 272 273 274 275 277 278 278 279 278 278 276 275 275 275 274 273 273 274 274 274 274 274 275 275 274 273 273 273 274 273
254 257 259 262 265 266 266 267 269 270 271 271 272 273 274 275 276 277 278 279 280 280 281 280 279 278 277 276 274 274 274 274 275 275 275 275 275 274 273 272 272 273 272
256 259 261 264 266 267 268 269 269 270 271 272 272 274 275 276 277 278 279 280 281 282 282 282 281 280 279 278 277 276 275 275 276 277 277 277 277 275 274 272 272 272 272
258 261 263 266 267 267 268 269 270 271 271 272 273 274 276 276 278 279 280 281 282 283 283 283 283 283 281 280 279 278 277 276 277 277 278 278 278 278 275 273 273 272 272
259 262 265 267 267 267 269 269 270 271 272 273 274 275 276 277 278 280 281 281 282 283 283 283 283 283 283 282 281 281 280 279 278 278 278 279 279 278 277 275 274 273 272
260 263 265 267 267 268 269 270 271 272 273 274 275 276 277 278 279 280 281 281 282 283 283 283 284 285 285 283 283 283 282 281 281 280 280 280 281 279 277 276 276 275 274
261 263 266 267 267 268 269 270 271 273 274 275 277 277 278 279 280 281 281 282 284 284 284 284 284 286 285 284 284 284 284 283 283 283 282 282 281 280 278 277 276 277 278
261 264 266 267 267 268 269 270 272 273 275 276 277 278 279 280 282 282 282 283 284 284 285 285 285 285 285 285 285 285 286 286 285 284 284 283 282 281 279 278 278 279 279
262 264 266 267 267 268 269 271 272 274 275 276 278 279 280 281 282 281 282 283 284 284 285 286 286 285 285 286 286 287 287 287 287 286 285 283 282 281 280 279 279 279 279
261 263 265 266 267 268 269 271 272 275 276 278 279 280 281 282 282 280 281 283 284 283 285 287 287 286 286 287 287 288 289 289 289 287 285 283 282 283 281 280 279 279 279
262 263 264 266 267 269 271 271 272 275 277 279 281 281 282 282 282 281 282 282 283 284 285 287 287 287 288 287 288 289 290 290 289 289 287 285 283 283 282 280 279 278 278
263 264 266 268 269 270 271 272 274 276 277 279 281 282 283 283 283 282 283 283 284 285 286 287 288 289 289 289 290 291 292 290 289 290 289 286 284 284 283 280 278 276 275
265 266 268 270 270 270 271 273 275 276 278 281 282 284 285 285 285 284 284 284 286 286 287 287 289 290 290 291 291 292 292 292 291 290 290 289 286 283 282 280 277 275 274
265 267 270 272 271 271 272 274 276 278 279 282 284 285 286 287 286 285 285 286 287 288 288 289 290 292 292 292 292 292 293 293 293 293 291 290 286 282 281 279 276 274 273
266 268 270 273 273 274 275 276 277 279 281 283 284 285 286 286 286 285 285 287 288 289 290 291 292 292 292 293 293 294 294 295 296 294 291 290 287 283 281 279 277 274 271
265 268 270 272 274 276 277 278 278 280 281 283 284 284 285 286 286 286 287 288 290 291 292 293 293 293 293 294 295 296 296 296 297 295 293 291 289 285 282 280 278 274 271
265 268 271 272 273 275 277 279 280 281 282 282 283 284 285 286 286 287 288 290 292 292 293 294 294 294 294 295 297 297 297 298 299 298 296 293 291 287 282 278 277 273 270
266 269 270 271 273 275 277 280 281 280 280 281 283 284 285 286 288 288 290 291 292 293 294 295 295 296 296 297 298 298 299 301 301 299 298 295 293 289 284 278 274 273 270
266 268 270 272 274 276 279 280 281 281 281 281 282 284 286 287 288 288 289 291 292 293 295 296 295 296 297 299 300 300 301 302 302 300 298 296 294 291 285 278 274 271 269
266 268 269 272 275 277 278 279 279 280 282 282 283 285 286 287 288 288 290 291 292 294 295 295 297 298 299 300 301 302 303 304 303 302 300 298 296 293 288 282 275 271 266
267 269 271 274 277 278 278 278 279 281 282 283 284 286 287 287 288 289 290 291 292 294 295 296 298 299 300 301 302 304 306 307 306 304 301 298 296 293 290 286 278 271 265
267 270 273 276 278 278 278 278 280 281 283 284 286 287 288 288 288 289 290 292 293 294 295 297 298 299 301 301 303 305 307 307 308 306 304 300 297 294 292 288 281 271 264
267 270 274 277 277 277 278 279 281 282 283 284 286 287 288 289 289 290 292 293 293 294 296 298 299 300 301 301 302 305 305 306 307 307 305 302 299 296 294 290 282 273 267
267 269 273 275 276 277 279 280 281 282 283 284 284 285 286 287 288 290 291 293 293 295 297 298 300 301 301 301 303 304 304 305 305 304 303 301 300 298 296 292 284 275 267
268 270 272 273 274 276 279 281 281 282 282 283 283 283 284 286 287 288 289 291 292 295 296 298 299 301 301 302 304 305 305 305 303 302 300 299 299 298 295 291 285 276 264
267 270 272 272 274 276 279 281 282 283 282 283 283 283 284 285 286 287 289 291 293 296 298 299 301 302 303 305 306 306 306 306 306 304 302 301 301 299 296 290 284 273 260
Height
5737 5737 5738 5739 5739 5739 5738 5738 5737 5737 5736 5736 5735 5735 5734 5733 5732 5731 5729 5727 5725 5722 5720 5718 5716 5714 5713 5711 5711 5710 5710 5709 5708 5708 5707 5707 5705 5703 5702 5701 5699 5699 5698
5729 5730 5731 5731 5731 5730 5729 5729 5728 5728 5727 5727 5726 5725 5724 5723 5722 5720 5718 5716 5713 5711 5708 5705 5703 5701 5699 5698 5698 5697 5697 5696 5695 5694 5693 5693 5693 5691 5688 5687 5686 5684 5683
5722 5722 5723 5723 5722 5721 5721 5720 5719 5719 5718 5717 5716 5715 5714 5713 5712 5710 5708 5706 5703 5700 5697 5694 5691 5689 5688 5686 5685 5684 5684 5683 5682 5679 5678 5677 5677 5677 5676 5673 5672 5670 5669
5714 5714 5714 5714 5713 5713 5712 5711 5710 5709 5708 5708 5707 5706 5705 5703 5702 5700 5698 5695 5692 5689 5686 5683 5681 5678 5676 5674 5673 5671 5670 5669 5668 5666 5664 5663 5661 5659 5660 5660 5657 5655 5654
5705 5705 5705 5705 5704 5703 5702 5701 5701 5700 5699 5698 5697 5695 5694 5693 5692 5689 5687 5684 5681 5679 5676 5673 5670 5667 5665 5663 5661 5659 5658 5656 5655 5653 5651 5649 5646 5644 5643 5644 5643 5641 5639
5696 5696 5696 5696 5695 5694 5693 5692 5691 5690 5689 5688 5686 5685 5684 5683 5681 5679 5676 5674 5671 5668 5665 5661 5658 5656 5653 5651 5649 5647 5645 5643 5641 5639 5637 5635 5632 5629 5627 5627 5627 5625 5624
5687 5687 5687 5687 5686 5685 5684 5683 5682 5681 5679 5678 5676 5675 5673 5672 5670 5668 5666 5663 5660 5657 5653 5650 5647 5644 5642 5639 5637 5635 5633 5630 5628 5625 5623 5620 5617 5614 5612 5610 5609 5609 5609
5678 5678 5678 5677 5677 5676 5675 5674 5672 5671 5669 5668 5666 5664 5663 5661 5659 5657 5654 5652 5649 5646 5642 5639 5636 5633 5630 5628 5625 5622 5620 5617 5614 5611 5608 5605 5602 5600 5596 5594 5592 5592 5592
5669 5669 5669 5668 5667 5666 5666 5664 5663 5662 5660 5658 5656 5654 5652 5650 5648 5645 5643 5640 5638 5635 5631 5628 5624 5621 5618 5615 5612 5609 5607 5603 5600 5597 5593 5590 5588 5585 5582 5579 5577 5574 5574
5660 5660 5660 5659 5658 5657 5656 5655 5654 5652 5651 5648 5646 5644 5642 5639 5636 5634 5632 5629 5626 5623 5620 5616 5612 5609 5606 5602 5599 5596 5593 5590 5586 5582 5579 5576 5573 5570 5568 5565 5562 5559 5557
5651 5651 5650 5650 5649 5648 5647 5646 5644 5643 5641 5639 5636 5634 5631 5628 5625 5623 5620 5617 5614 5611 5608 5604 5601 5597 5594 5590 5587 5584 5580 5576 5572 5568 5565 5562 5559 5556 5553 5551 5548 5546 5544
5642 5642 5641 5641 5640 5639 5638 5636 5635 5633 5631 5629 5626 5623 5620 5617 5614 5611 5609 5606 5602 5599 5596 5593 5589 5586 5582 5578 5575 5571 5567 5563 5559 5555 5551 5548 5545 5542 5539 5537 5535 5533 5531
5633 5633 5632 5631 5630 5629 5628 5627 5625 5623 5621 5618 5615 5612 5609 5606 5602 5600 5597 5595 5591 5588 5585 5581 5578 5574 5570 5566 5563 5559 5554 5550 5546 5542 5538 5534 5530 5528 5526 5523 5521 5520 5519
5623 5623 5623 5622 5621 5620 5618 5617 5615 5613 5610 5608 5605 5602 5598 5595 5592 5589 5586 5583 5580 5577 5574 5570 5567 5563 5559 5555 5551 5546 5542 5538 5533 5529 5524 5520 5517 5515 5513 5511 5509 5507 5507
5614 5614 5614 5613 5612 5610 5609 5607 5605 5602 5600 5597 5594 5591 5587 5584 5581 5578 5575 5573 5570 5567 5563 5560 5556 5552 5548 5544 5539 5535 5530 5526 5522 5517 5512 5508 5505 5502 5500 5498 5497 5496 5495
5605 5605 5604 5604 5602 5600 5599 5597 5594 5592 5589 5586 5583 5580 5577 5574 5571 5568 5565 5562 5559 5556 5553 5549 5545 5541 5537 5533 5528 5523 5518 5514 5510 5505 5501 5497 5493 5490 5488 5487 5485 5485 5485
5595 5595 5595 5594 5592 5591 5589 5587 5584 5582 5579 5576 5573 5570 5567 5564 5561 5558 5556 5553 5550 5546 5543 5539 5535 5531 5527 5523 5518 5513 5508 5503 5499 5494 5491 5487 5484 5480 5478 5477 5476 5476 5476
5586 5586 5585 5584 5582 5581 5579 5576 5574 5571 5568 5566 5563 5560 5558 5555 5552 5549 5546 5543 5540 5537 5533 5530 5526 5522 5518 5513 5508 5503 5499 5494 5490 5485 5481 5477 5474 5470 5467 5466 5466 5466 5467
5576 5575 5575 5574 5572 5571 5569 5566 5564 5561 5559 5556 5554 5551 5548 5546 5543 5540 5537 5534 5531 5528 5524 5521 5517 5513 5509 5505 5500 5495 5490 5486 5481 5477 5472 5468 5464 5461 5458 5457 5457 5458 5458
5565 5565 5565 5564 5562 5561 5558 5557 5554 5552 5550 5547 5545 5542 5539 5536 5533 5531 5528 5525 5522 5519 5515 5512 5508 5505 5501 5497 5492 5487 5482 5478 5474 5469 5465 5460 5456 5453 5450 5448 5448 5449 5450
5555 5555 5555 5554 5552 5550 5549 5547 5545 5543 5541 5538 5535 5533 5530 5527 5524 5522 5519 5516 5513 5510 5507 5504 5501 5497 5493 5489 5484 5480 5475 5470 5466 5462 5458 5454 5450 5446 5444 5442 5441 5441 5442
5545 5545 5545 5544 5542 5540 5539 5537 5536 5534 5531 5529 5526 5524 5521 5518 5516 5513 5510 5508 5505 5502 5499 5496 5493 5489 5485 5481 5477 5473 5468 5463 5459 5455 5451 5448 5444 5441 5438 5436 5434 5434 5434
5535 5535 5534 5533 5532 5530 5529 5528 5526 5524 5522 5520 5518 5515 5513 5510 5507 5505 5502 5499 5496 5493 5491 5488 5485 5482 5478 5475 5471 5467 5462 5457 5452 5449 5445 5442 5438 5435 5433 5430 5428 5428 5428
5526 5525 5524 5524 5522 5521 5520 5518 5517 5515 5513 5511 5509 5506 5504 5502 5499 5496 5494 5491 5488 5486 5483 5480 5478 5475 5472 5468 5464 5460 5456 5452 5447 5443 5440 5436 5433 5430 5428 5425 5424 5423 5423
5516 5515 5515 5514 5513 5512 5510 5509 5507 5505 5504 5502 5500 5498 5496 5494 5491 5489 5486 5484 5481 5478 5475 5473 5470 5468 5465 5461 5457 5453 5449 5445 5442 5438 5435 5432 5429 5426 5423 5421 5420 5419 5419
5506 5505 5505 5504 5503 5502 5501 5500 5498 5496 5495 5493 5491 5489 5487 5485 5483 5481 5479 5476 5474 5471 5468 5465 5463 5460 5457 5454 5451 5447 5443 5439 5436 5432 5430 5427 5424 5422 5419 5418 5417 5416 5416